This is the latest recevied weather packets stored in our database for station/object K0KDS. If no packets are shown the sender has not sent any weather packets the latest 10 day(s).
| Time | Temp. | Humidity | Pressure | Rain* | Wind** | Luminosity | Snow |
|---|---|---|---|---|---|---|---|
| 1777300342 | 16.11° C | 90% | 996.8 hPa | 0 mm | - | - | - |
| 1777299442 | 15.56° C | 94% | 996.9 hPa | 0 mm | - | - | - |
| 1777298542 | 15° C | 95% | 997.5 hPa | 0 mm | - | - | - |
| 1777297642 | 14.44° C | 97% | 998 hPa | 0 mm | - | - | - |
| 1777296741 | 14.44° C | 97% | 996 hPa | 0 mm | - | - | - |
| 1777295842 | 13.89° C | 97% | 992.6 hPa | 0 mm | - | - | - |
| 1777294942 | 14.44° C | 97% | 994.3 hPa | 0 mm | - | - | - |
| 1777294042 | 14.44° C | 97% | 998.8 hPa | 0 mm | - | - | - |
| 1777293141 | 14.44° C | 97% | 999.6 hPa | 0 mm | - | - | - |
| 1777292242 | 14.44° C | 97% | 999.6 hPa | 0 mm | - | - | - |
| 1777291342 | 14.44° C | 97% | 999.4 hPa | 2.54 mm | - | - | - |
| 1777290442 | 14.44° C | 97% | 998.4 hPa | 2.54 mm | - | - | - |
| 1777289542 | 15° C | 97% | 997.7 hPa | 2.54 mm | - | - | - |
| 1777288642 | 15° C | 97% | 999.4 hPa | 2.54 mm | - | - | - |
| 1777287742 | 15° C | 97% | 1000 hPa | 5.08 mm | - | - | - |
| 1777286842 | 15° C | 97% | 999.7 hPa | 5.08 mm | - | - | - |
| 1777285942 | 15° C | 97% | 999.8 hPa | 5.08 mm | - | - | - |
| 1777285042 | 15° C | 97% | 1000.5 hPa | 5.08 mm | - | - | - |
| 1777284141 | 15° C | 97% | 1000.9 hPa | 5.08 mm | - | - | - |
| 1777283241 | 15° C | 96% | 1001.2 hPa | 7.62 mm | - | - | - |
| 1777282342 | 15° C | 95% | 1001.2 hPa | 7.62 mm | - | - | - |
| 1777281862 | 15° C | 93% | 1001.5 hPa | 7.62 mm | - | - | - |
| 1777281382 | 15.56° C | 93% | 1001.5 hPa | 7.62 mm | - | - | - |
| 1777281142 | 15.56° C | 92% | 1001.7 hPa | 7.62 mm | - | - | - |
| 1777280902 | 15.56° C | 92% | 1002.2 hPa | 10.16 mm | - | - | - |
* Rain latest hour (hover to see other rain measurements)
** Current wind speed in m/s (hover to see current wind gust speed)